"Pseudo-MPEC" for P10Swly

Created 2019 Oct 10 13:07:34 UT using Find_Orb

Click here for an explanation of pseudo-MPECs

 
 Astrometry: 
     P10Swly  C2019 10 07gjm.ECAstrometrye=\O3$d]E/lP96g2?tk?tredacted;F`3m.AF51
     P10Swly  C2019 10 078Q-0g6wF!ZkdMuWcbiclick\\JNUxt2here_-%m(qxi'?%e[_VEfF51
     P10Swly  C2019 10 07QOmEfOI:_HhqaOP.WG`GO%'.kbm!aZ-ccbOPfCih1:O`D7kw?tF(F51
     P10Swly KC2019 10 08.34687 00 46 19.46 +15 57 06.4    ~A89b 21.4 RoNEOCP691
     P10Swly KC2019 10 08.35630 00 46 18.85 +15 56 54.1    ~A89b 21.1 RoNEOCP691
     P10Swly KC2019 10 08.36572 00 46 18.30 +15 56 41.8    ~A89b 21.0 RoNEOCP691
     P10Swly ^C2019 10 10GbPII0VfMVN#`n)\2werAjgSca0cDWKtZt^6`eGiha]CEfor@UB_695
     P10Swly ^C2019 10 10'dLQo5l%yj]J=EV._B/NdJexplanationf-I`blED0ap;W+a6^RM695
     P10Swly ^C2019 10 10/Jk.'SGIv3@bAj]\G'FcQa@]H0AT^*%)l,6:/RjvL,=.URU6Rh98695

Station data:
(691) Steward Observatory, Kitt Peak - Spacewatch  (N31.962174 W111.600327)
   US/Arizona.  Observer J. V. Scotti. 0.9-m f/3 reflector + CCD.
(695) Kitt Peak  (N31.958398 W111.594670)  US/Arizona.
(F51) Pan-STARRS 1, Haleakala  (N20.707235 W156.255910)  US/Hawaii.
   Observers N. Primak, A. Schultz, S. Watters, J. Thiel, T. Goggia. Measurer
   PS1 Science Consortium. 1.8-m Ritchey-Chrétien + CCD.

Orbital elements:  P10Swly
   Perihelion 2020 Jul 13.854570 +/- 27.3 TT = 20:30:34 (JD 2459044.354570)
Epoch 2019 Oct 10.0 TT = JDT 2458766.5   Earth MOID: 0.7242   AutoNEOCP
M 244.02448789 +/- 8                (J2000 ecliptic)
n   0.41739645 +/- 0.0152           Peri.  286.54451 +/- 9
a   1.77325099 +/- 0.043            Node   210.52380 +/- 0.9
e   0.0553442 +/- 0.0163            Incl.   17.26622 +/- 1.6
P   2.36/862.47d           H 20.3   G  0.15   U  9.9  
q 1.67511167 +/- 0.0183    Q 1.87139031 +/- 0.071
From 9 observations 2019 Oct. 7-10; mean residual 0".15
Residuals in arcseconds: 
191007 F51  .26-  .03-    191008 691  .07+  .05-    191010 695  .12-  .07-    
191007 F51  .03+  .05-    191008 691  .34-  .03+    191010 695  .08+  .02+    
191007 F51  .35+  .01+    191008 691  .10+  .11+    191010 695  .09+  .01+    

Ephemerides (geocentric):
Date (UTC) HH   RA              Dec         delta   r     elong  mag " sig PA
---- -- -- --  -------------   -----------  ------ ------ -----  --- ---- ---
2019 10 10 13  00 44 13.042   +15 08 45.21  .82781 1.8201 170.4 21.6 .044 108
2019 10 10 14  00 44 10.656   +15 07 49.48  .82779 1.8201 170.4 21.6 .067 117
2019 10 10 15  00 44 08.271   +15 06 53.72  .82777 1.8201 170.4 21.6 .091 122
2019 10 10 16  00 44 05.886   +15 05 57.95  .82775 1.8201 170.4 21.6 .116 124
2019 10 10 17  00 44 03.503   +15 05 02.15  .82772 1.8200 170.4 21.6 .142 126
2019 10 10 18  00 44 01.120   +15 04 06.34  .82770 1.8200 170.5 21.6 .169 127
2019 10 10 19  00 43 58.738   +15 03 10.50  .82768 1.8200 170.5 21.6 .197 127
2019 10 10 20  00 43 56.356   +15 02 14.65  .82766 1.8200 170.5 21.6 .226 128
2019 10 10 21  00 43 53.976   +15 01 18.77  .82764 1.8199 170.5 21.6 .255 128
2019 10 10 22  00 43 51.596   +15 00 22.88  .82762 1.8199 170.5 21.6 .286 128
2019 10 10 23  00 43 49.218   +14 59 26.97  .82760 1.8199 170.5 21.6 .317 128
2019 10 11 00  00 43 46.840   +14 58 31.03  .82759 1.8199 170.5 21.6 .349 128
2019 10 11 01  00 43 44.463   +14 57 35.08  .82757 1.8198 170.5 21.6 .382 128
2019 10 11 02  00 43 42.087   +14 56 39.11  .82755 1.8198 170.5 21.6 .415 128
2019 10 11 03  00 43 39.712   +14 55 43.12  .82753 1.8198 170.5 21.6 .449 128
2019 10 11 04  00 43 37.337   +14 54 47.12  .82752 1.8198 170.5 21.6 .485 128
2019 10 11 05  00 43 34.964   +14 53 51.09  .82750 1.8197 170.5 21.6 .521 128
2019 10 11 06  00 43 32.592   +14 52 55.05  .82748 1.8197 170.5 21.6 .557 128
2019 10 11 07  00 43 30.220   +14 51 58.98  .82747 1.8197 170.5 21.6 .595 128
2019 10 11 08  00 43 27.850   +14 51 02.90  .82745 1.8196 170.5 21.6 .633 127
2019 10 11 09  00 43 25.480   +14 50 06.80  .82744 1.8196 170.5 21.6 .673 127
2019 10 11 10  00 43 23.111   +14 49 10.69  .82743 1.8196 170.5 21.6 .713 127
2019 10 11 11  00 43 20.743   +14 48 14.55  .82741 1.8196 170.5 21.6 .754 127
2019 10 11 12  00 43 18.377   +14 47 18.40  .82740 1.8195 170.5 21.6 .796 127
2019 10 11 13  00 43 16.011   +14 46 22.23  .82739 1.8195 170.5 21.6 .838 126
2019 10 11 14  00 43 13.646   +14 45 26.04  .82737 1.8195 170.5 21.6 .882 126
2019 10 11 15  00 43 11.282   +14 44 29.84  .82736 1.8195 170.5 21.6 .926 126
2019 10 11 16  00 43 08.919   +14 43 33.62  .82735 1.8194 170.5 21.6 .971 126
2019 10 11 17  00 43 06.557   +14 42 37.38  .82734 1.8194 170.5 21.6 1.02 126
2019 10 11 18  00 43 04.197   +14 41 41.12  .82733 1.8194 170.5 21.6 1.06 125
2019 10 11 19  00 43 01.837   +14 40 44.85  .82732 1.8194 170.5 21.6 1.11 125
2019 10 11 20  00 42 59.478   +14 39 48.56  .82731 1.8193 170.5 21.6 1.16 125
2019 10 11 21  00 42 57.120   +14 38 52.25  .82730 1.8193 170.5 21.6 1.21 125
2019 10 11 22  00 42 54.764   +14 37 55.93  .82729 1.8193 170.5 21.6 1.26 124
2019 10 11 23  00 42 52.408   +14 36 59.59  .82728 1.8193 170.5 21.6 1.31 124
2019 10 12 00  00 42 50.053   +14 36 03.23  .82727 1.8192 170.5 21.6 1.36 124
2019 10 12 01  00 42 47.700   +14 35 06.86  .82727 1.8192 170.5 21.6 1.42 124
2019 10 12 02  00 42 45.347   +14 34 10.47  .82726 1.8192 170.5 21.6 1.47 124
2019 10 12 03  00 42 42.996   +14 33 14.07  .82725 1.8192 170.5 21.6 1.52 123
2019 10 12 04  00 42 40.645   +14 32 17.65  .82725 1.8191 170.4 21.6 1.58 123
2019 10 12 05  00 42 38.296   +14 31 21.21  .82724 1.8191 170.4 21.6 1.64 123
2019 10 12 06  00 42 35.948   +14 30 24.76  .82724 1.8191 170.4 21.6 1.69 123
2019 10 12 07  00 42 33.601   +14 29 28.29  .82723 1.8191 170.4 21.6 1.75 123
2019 10 12 08  00 42 31.255   +14 28 31.81  .82723 1.8190 170.4 21.6 1.81 122
2019 10 12 09  00 42 28.910   +14 27 35.31  .82722 1.8190 170.4 21.6 1.87 122
2019 10 12 10  00 42 26.567   +14 26 38.80  .82722 1.8190 170.4 21.6 1.93 122
2019 10 12 11  00 42 24.224   +14 25 42.27  .82722 1.8190 170.4 21.6 1.99 122
2019 10 12 12  00 42 21.883   +14 24 45.73  .82721 1.8189 170.4 21.6 2.06 121